Year,Month,Day,Hour,Minute,Value (Times are PST for temperature in C)
2013,08,21,00,00,14.30
2013,08,21,00,01,14.30
2013,08,21,00,02,14.30
2013,08,21,00,03,14.30
2013,08,21,00,04,14.30
2013,08,21,00,05,14.30
2013,08,21,00,06,14.30
2013,08,21,00,07,14.30
2013,08,21,00,08,14.30
2013,08,21,00,09,14.40
2013,08,21,00,10,14.30
2013,08,21,00,11,14.30
2013,08,21,00,12,14.30
2013,08,21,00,13,14.30
2013,08,21,00,14,14.20
2013,08,21,00,15,14.20
2013,08,21,00,16,14.20
2013,08,21,00,17,14.10
2013,08,21,00,18,14.10
2013,08,21,00,19,14.00
2013,08,21,00,20,14.00
2013,08,21,00,21,13.90
2013,08,21,00,22,13.90
2013,08,21,00,23,13.80
2013,08,21,00,24,13.80
2013,08,21,00,25,13.80
2013,08,21,00,26,13.70
2013,08,21,00,27,13.70
2013,08,21,00,28,13.60
2013,08,21,00,29,13.60
2013,08,21,00,30,13.60
2013,08,21,00,31,13.60
2013,08,21,00,32,13.60
2013,08,21,00,33,13.50
2013,08,21,00,34,13.50
2013,08,21,00,35,13.50
2013,08,21,00,36,13.50
2013,08,21,00,37,13.60
2013,08,21,00,38,13.60
2013,08,21,00,39,13.60
2013,08,21,00,40,13.60
2013,08,21,00,41,13.60
2013,08,21,00,42,13.60
2013,08,21,00,43,13.60
2013,08,21,00,44,13.60
2013,08,21,00,45,13.60
2013,08,21,00,46,13.60
2013,08,21,00,47,13.60
2013,08,21,00,48,13.60
2013,08,21,00,49,13.60
2013,08,21,00,50,13.60
2013,08,21,00,51,13.60
2013,08,21,00,52,13.60
2013,08,21,00,53,13.60
2013,08,21,00,54,13.60
2013,08,21,00,55,13.60
2013,08,21,00,56,13.60
2013,08,21,00,57,13.50
2013,08,21,00,58,13.50
2013,08,21,00,59,13.50
2013,08,21,01,00,13.50
2013,08,21,01,01,13.50
2013,08,21,01,02,13.40
2013,08,21,01,03,13.40
2013,08,21,01,04,13.40
2013,08,21,01,05,13.40
2013,08,21,01,06,13.40
2013,08,21,01,07,13.40
2013,08,21,01,08,13.40
2013,08,21,01,09,13.40
2013,08,21,01,10,13.30
2013,08,21,01,11,13.30
2013,08,21,01,12,13.30
2013,08,21,01,13,13.30
2013,08,21,01,14,13.20
2013,08,21,01,15,13.20
2013,08,21,01,16,13.10
2013,08,21,01,17,13.10
2013,08,21,01,18,13.10
2013,08,21,01,19,13.10
2013,08,21,01,20,13.10
2013,08,21,01,21,13.00
2013,08,21,01,22,13.00
2013,08,21,01,23,12.90
2013,08,21,01,24,12.90
2013,08,21,01,25,12.90
2013,08,21,01,26,12.90
2013,08,21,01,27,12.90
2013,08,21,01,28,12.90
2013,08,21,01,29,12.90
2013,08,21,01,30,12.90
2013,08,21,01,31,12.80
2013,08,21,01,32,12.80
2013,08,21,01,33,12.80
2013,08,21,01,34,12.80
2013,08,21,01,35,12.80
2013,08,21,01,36,12.80
2013,08,21,01,37,12.80
2013,08,21,01,38,12.80
2013,08,21,01,39,12.80
2013,08,21,01,40,12.80
2013,08,21,01,41,12.80
2013,08,21,01,42,12.80
2013,08,21,01,43,12.80
2013,08,21,01,44,12.80
2013,08,21,01,45,12.80
2013,08,21,01,46,12.80
2013,08,21,01,47,12.90
2013,08,21,01,48,12.90
2013,08,21,01,49,12.90
2013,08,21,01,50,12.90
2013,08,21,01,51,12.90
2013,08,21,01,52,12.90
2013,08,21,01,53,12.90
2013,08,21,01,54,12.90
2013,08,21,01,55,12.80
2013,08,21,01,56,12.80
2013,08,21,01,57,12.80
2013,08,21,01,58,12.80
2013,08,21,01,59,12.80
2013,08,21,02,00,12.80
2013,08,21,02,01,12.80
2013,08,21,02,02,12.80
2013,08,21,02,03,12.80
2013,08,21,02,04,12.80
2013,08,21,02,05,12.80
2013,08,21,02,06,12.80
2013,08,21,02,07,12.70
2013,08,21,02,08,12.70
2013,08,21,02,09,12.70
2013,08,21,02,10,12.70
2013,08,21,02,11,12.60
2013,08,21,02,12,12.60
2013,08,21,02,13,12.60
2013,08,21,02,14,12.60
2013,08,21,02,15,12.60
2013,08,21,02,16,12.60
2013,08,21,02,17,12.50
2013,08,21,02,18,12.50
2013,08,21,02,19,12.50
2013,08,21,02,20,12.50
2013,08,21,02,21,12.50
2013,08,21,02,22,12.60
2013,08,21,02,23,12.60
2013,08,21,02,24,12.60
2013,08,21,02,25,12.60
2013,08,21,02,26,12.50
2013,08,21,02,27,12.50
2013,08,21,02,28,12.50
2013,08,21,02,29,12.50
2013,08,21,02,30,12.40
2013,08,21,02,31,12.40
2013,08,21,02,32,12.40
2013,08,21,02,33,12.40
2013,08,21,02,34,12.40
2013,08,21,02,35,12.40
2013,08,21,02,36,12.40
2013,08,21,02,37,12.40
2013,08,21,02,38,12.40
2013,08,21,02,39,12.40
2013,08,21,02,40,12.40
2013,08,21,02,41,12.40
2013,08,21,02,42,12.40
2013,08,21,02,43,12.40
2013,08,21,02,44,12.40
2013,08,21,02,45,12.40
2013,08,21,02,46,12.40
2013,08,21,02,47,12.40
2013,08,21,02,48,12.40
2013,08,21,02,49,12.40
2013,08,21,02,50,12.40
2013,08,21,02,51,12.40
2013,08,21,02,52,12.40
2013,08,21,02,53,12.40
2013,08,21,02,54,12.30
2013,08,21,02,55,12.30
2013,08,21,02,56,12.30
2013,08,21,02,57,12.30
2013,08,21,02,58,12.30
2013,08,21,02,59,12.30
2013,08,21,03,00,12.30
2013,08,21,03,01,12.30
2013,08,21,03,02,12.20
2013,08,21,03,03,12.20
2013,08,21,03,04,12.20
2013,08,21,03,05,12.20
2013,08,21,03,06,12.20
2013,08,21,03,07,12.10
2013,08,21,03,08,12.10
2013,08,21,03,09,12.10
2013,08,21,03,10,12.10
2013,08,21,03,11,12.10
2013,08,21,03,12,12.00
2013,08,21,03,13,12.00
2013,08,21,03,14,12.00
2013,08,21,03,15,12.00
2013,08,21,03,16,12.00
2013,08,21,03,17,11.90
2013,08,21,03,18,11.90
2013,08,21,03,19,11.90
2013,08,21,03,20,11.90
2013,08,21,03,21,11.90
2013,08,21,03,22,11.90
2013,08,21,03,23,11.90
2013,08,21,03,24,11.90
2013,08,21,03,25,11.90
2013,08,21,03,26,11.80
2013,08,21,03,27,11.80
2013,08,21,03,28,11.80
2013,08,21,03,29,11.80
2013,08,21,03,30,11.80
2013,08,21,03,31,11.80
2013,08,21,03,32,11.80
2013,08,21,03,33,11.80
2013,08,21,03,34,11.80
2013,08,21,03,35,11.90
2013,08,21,03,36,11.80
2013,08,21,03,37,11.80
2013,08,21,03,38,11.80
2013,08,21,03,39,11.90
2013,08,21,03,40,11.90
2013,08,21,03,41,11.90
2013,08,21,03,42,11.80
2013,08,21,03,43,11.80
2013,08,21,03,44,11.80
2013,08,21,03,45,11.80
2013,08,21,03,46,11.80
2013,08,21,03,47,11.80
2013,08,21,03,48,11.80
2013,08,21,03,49,11.80
2013,08,21,03,50,11.80
2013,08,21,03,51,11.80
2013,08,21,03,52,11.80
2013,08,21,03,53,11.80
2013,08,21,03,54,11.70
2013,08,21,03,55,11.70
2013,08,21,03,56,11.70
2013,08,21,03,57,11.70
2013,08,21,03,58,11.60
2013,08,21,03,59,11.60
2013,08,21,04,00,11.60
2013,08,21,04,01,11.60
2013,08,21,04,02,11.60
2013,08,21,04,03,11.60
2013,08,21,04,04,11.60
2013,08,21,04,05,11.60
2013,08,21,04,06,11.60
2013,08,21,04,07,11.60
2013,08,21,04,08,11.60
2013,08,21,04,09,11.60
2013,08,21,04,10,11.60
2013,08,21,04,11,11.60
2013,08,21,04,12,11.60
2013,08,21,04,13,11.60
2013,08,21,04,14,11.60
2013,08,21,04,15,11.60
2013,08,21,04,16,11.50
2013,08,21,04,17,11.50
2013,08,21,04,18,11.50
2013,08,21,04,19,11.50
2013,08,21,04,20,11.50
2013,08,21,04,21,11.40
2013,08,21,04,22,11.40
2013,08,21,04,23,11.40
2013,08,21,04,24,11.40
2013,08,21,04,25,11.40
2013,08,21,04,26,11.30
2013,08,21,04,27,11.30
2013,08,21,04,28,11.30
2013,08,21,04,29,11.30
2013,08,21,04,30,11.30
2013,08,21,04,31,11.30
2013,08,21,04,32,11.30
2013,08,21,04,33,11.30
2013,08,21,04,34,11.30
2013,08,21,04,35,11.30
2013,08,21,04,36,11.30
2013,08,21,04,37,11.30
2013,08,21,04,38,11.30
2013,08,21,04,39,11.30
2013,08,21,04,40,11.30
2013,08,21,04,41,11.40
2013,08,21,04,42,11.40
2013,08,21,04,43,11.40
2013,08,21,04,44,11.40
2013,08,21,04,45,11.40
2013,08,21,04,46,11.30
2013,08,21,04,47,11.30
2013,08,21,04,48,11.30
2013,08,21,04,49,11.30
2013,08,21,04,50,11.30
2013,08,21,04,51,11.30
2013,08,21,04,52,11.30
2013,08,21,04,53,11.30
2013,08,21,04,54,11.30
2013,08,21,04,55,11.30
2013,08,21,04,56,11.30
2013,08,21,04,57,11.20
2013,08,21,04,58,11.20
2013,08,21,04,59,11.20
2013,08,21,05,00,11.20
2013,08,21,05,01,11.20
2013,08,21,05,02,11.20
2013,08,21,05,03,11.20
2013,08,21,05,04,11.10
2013,08,21,05,05,11.10
2013,08,21,05,06,11.10
2013,08,21,05,07,11.10
2013,08,21,05,08,11.10
2013,08,21,05,09,11.10
2013,08,21,05,10,11.10
2013,08,21,05,11,11.00
2013,08,21,05,12,11.00
2013,08,21,05,13,11.00
2013,08,21,05,14,11.00
2013,08,21,05,15,11.00
2013,08,21,05,16,11.00
2013,08,21,05,17,10.90
2013,08,21,05,18,10.90
2013,08,21,05,19,10.90
2013,08,21,05,20,10.90
2013,08,21,05,21,10.90
2013,08,21,05,22,10.90
2013,08,21,05,23,10.80
2013,08,21,05,24,10.80
2013,08,21,05,25,10.80
2013,08,21,05,26,10.80
2013,08,21,05,27,10.80
2013,08,21,05,28,10.80
2013,08,21,05,29,10.80
2013,08,21,05,30,10.80
2013,08,21,05,31,10.80
2013,08,21,05,32,10.80
2013,08,21,05,33,10.80
2013,08,21,05,34,10.80
2013,08,21,05,35,10.80
2013,08,21,05,36,10.80
2013,08,21,05,37,10.80
2013,08,21,05,38,10.90
2013,08,21,05,39,10.90
2013,08,21,05,40,10.90
2013,08,21,05,41,10.90
2013,08,21,05,42,11.00
2013,08,21,05,43,11.00
2013,08,21,05,44,11.10
2013,08,21,05,45,11.10
2013,08,21,05,46,11.10
2013,08,21,05,47,11.10
2013,08,21,05,48,11.10
2013,08,21,05,49,11.10
2013,08,21,05,50,11.10
2013,08,21,05,51,11.10
2013,08,21,05,52,11.10
2013,08,21,05,53,11.10
2013,08,21,05,54,11.10
2013,08,21,05,55,11.10
2013,08,21,05,56,11.10
2013,08,21,05,57,11.10
2013,08,21,05,58,11.10
2013,08,21,05,59,11.10
2013,08,21,06,00,11.10
2013,08,21,06,01,11.10
2013,08,21,06,02,11.10
2013,08,21,06,03,11.10
2013,08,21,06,04,11.10
2013,08,21,06,05,11.10
2013,08,21,06,06,11.10
2013,08,21,06,07,11.10
2013,08,21,06,08,11.10
2013,08,21,06,09,11.10
2013,08,21,06,10,11.10
2013,08,21,06,11,11.10
2013,08,21,06,12,11.00
2013,08,21,06,13,11.00
2013,08,21,06,14,11.00
2013,08,21,06,15,11.00
2013,08,21,06,16,10.90
2013,08,21,06,17,10.90
2013,08,21,06,18,10.90
2013,08,21,06,19,10.90
2013,08,21,06,20,10.80
2013,08,21,06,21,10.80
2013,08,21,06,22,10.80
2013,08,21,06,23,10.80
2013,08,21,06,24,10.80
2013,08,21,06,25,10.80
2013,08,21,06,26,10.80
2013,08,21,06,27,10.80
2013,08,21,06,28,10.80
2013,08,21,06,29,10.70
2013,08,21,06,30,10.70
2013,08,21,06,31,10.70
2013,08,21,06,32,10.70
2013,08,21,06,33,10.70
2013,08,21,06,34,10.70
2013,08,21,06,35,10.70
2013,08,21,06,36,10.70
2013,08,21,06,37,10.70
2013,08,21,06,38,10.70
2013,08,21,06,39,10.70
2013,08,21,06,40,10.70
2013,08,21,06,41,10.70
2013,08,21,06,42,10.70
2013,08,21,06,43,10.70
2013,08,21,06,44,10.70
2013,08,21,06,45,10.70
2013,08,21,06,46,10.70
2013,08,21,06,47,10.70
2013,08,21,06,48,10.70
2013,08,21,06,49,10.80
2013,08,21,06,50,10.80
2013,08,21,06,51,10.80
2013,08,21,06,52,10.90
2013,08,21,06,53,10.90
2013,08,21,06,54,10.90
2013,08,21,06,55,10.90
2013,08,21,06,56,10.90
2013,08,21,06,57,10.90
2013,08,21,06,58,10.90
2013,08,21,06,59,10.90
2013,08,21,07,00,10.90
2013,08,21,07,01,10.90
2013,08,21,07,02,10.90
2013,08,21,07,03,10.90
2013,08,21,07,04,10.90
2013,08,21,07,05,11.00
2013,08,21,07,06,11.00
2013,08,21,07,07,11.10
2013,08,21,07,08,11.10
2013,08,21,07,09,11.20
2013,08,21,07,10,11.20
2013,08,21,07,11,11.30
2013,08,21,07,12,11.30
2013,08,21,07,13,11.30
2013,08,21,07,14,11.30
2013,08,21,07,15,11.40
2013,08,21,07,16,11.40
2013,08,21,07,17,11.50
2013,08,21,07,18,11.60
2013,08,21,07,19,11.60
2013,08,21,07,20,11.70
2013,08,21,07,21,11.70
2013,08,21,07,22,11.80
2013,08,21,07,23,11.90
2013,08,21,07,24,11.90
2013,08,21,07,25,12.00
2013,08,21,07,26,12.10
2013,08,21,07,27,12.10
2013,08,21,07,28,12.20
2013,08,21,07,29,12.20
2013,08,21,07,30,12.30
2013,08,21,07,31,12.40
2013,08,21,07,32,12.50
2013,08,21,07,33,12.50
2013,08,21,07,34,12.60
2013,08,21,07,35,12.70
2013,08,21,07,36,12.80
2013,08,21,07,37,12.90
2013,08,21,07,38,12.90
2013,08,21,07,39,13.00
2013,08,21,07,40,13.10
2013,08,21,07,41,13.20
2013,08,21,07,42,13.30
2013,08,21,07,43,13.40
2013,08,21,07,44,13.60
2013,08,21,07,45,13.70
2013,08,21,07,46,13.80
2013,08,21,07,47,14.00
2013,08,21,07,48,14.10
2013,08,21,07,49,14.20
2013,08,21,07,50,14.30
2013,08,21,07,51,14.40
2013,08,21,07,52,14.60
2013,08,21,07,53,14.70
2013,08,21,07,54,14.80
2013,08,21,07,55,15.00
2013,08,21,07,56,15.10
2013,08,21,07,57,15.20
2013,08,21,07,58,15.30
2013,08,21,07,59,15.40
2013,08,21,08,00,15.50
2013,08,21,08,01,15.70
2013,08,21,08,02,15.80
2013,08,21,08,03,15.80
2013,08,21,08,04,16.00
2013,08,21,08,05,16.10
2013,08,21,08,06,16.20
2013,08,21,08,07,16.20
2013,08,21,08,08,16.30
2013,08,21,08,09,16.30
2013,08,21,08,10,16.40
2013,08,21,08,11,16.50
2013,08,21,08,12,16.50
2013,08,21,08,13,16.50
2013,08,21,08,14,16.60
2013,08,21,08,15,16.60
2013,08,21,08,16,16.70
2013,08,21,08,17,16.70
2013,08,21,08,18,16.80
2013,08,21,08,19,16.80
2013,08,21,08,20,16.90
2013,08,21,08,21,16.90
2013,08,21,08,22,17.00
2013,08,21,08,23,17.10
2013,08,21,08,24,17.10
2013,08,21,08,25,17.10
2013,08,21,08,26,17.10
2013,08,21,08,27,17.00
2013,08,21,08,28,16.90
2013,08,21,08,29,16.90
2013,08,21,08,30,16.90
2013,08,21,08,31,16.80
2013,08,21,08,32,16.80
2013,08,21,08,33,16.80
2013,08,21,08,34,16.80
2013,08,21,08,35,16.70
2013,08,21,08,36,16.70
2013,08,21,08,37,16.70
2013,08,21,08,38,16.70
2013,08,21,08,39,16.60
2013,08,21,08,40,16.60
2013,08,21,08,41,16.50
2013,08,21,08,42,16.50
2013,08,21,08,43,16.40
2013,08,21,08,44,16.40
2013,08,21,08,45,16.40
2013,08,21,08,46,16.40
2013,08,21,08,47,16.40
2013,08,21,08,48,16.50
2013,08,21,08,49,16.60
2013,08,21,08,50,16.70
2013,08,21,08,51,16.80
2013,08,21,08,52,17.00
2013,08,21,08,53,17.10
2013,08,21,08,54,17.30
2013,08,21,08,55,17.40
2013,08,21,08,56,17.60
2013,08,21,08,57,17.70
2013,08,21,08,58,17.80
2013,08,21,08,59,18.00
2013,08,21,09,00,18.10
2013,08,21,09,01,18.20
2013,08,21,09,02,18.30
2013,08,21,09,03,18.40
2013,08,21,09,04,18.50
2013,08,21,09,05,18.60
2013,08,21,09,06,18.70
2013,08,21,09,07,18.60
2013,08,21,09,08,18.60
2013,08,21,09,09,18.50
2013,08,21,09,10,18.50
2013,08,21,09,11,18.40
2013,08,21,09,12,18.30
2013,08,21,09,13,18.20
2013,08,21,09,14,18.00
2013,08,21,09,15,17.90
2013,08,21,09,16,17.80
2013,08,21,09,17,17.70
2013,08,21,09,18,17.60
2013,08,21,09,19,17.50
2013,08,21,09,20,17.40
2013,08,21,09,21,17.30
2013,08,21,09,22,17.20
2013,08,21,09,23,17.20
2013,08,21,09,24,17.10
2013,08,21,09,25,17.10
2013,08,21,09,26,17.00
2013,08,21,09,27,16.90
2013,08,21,09,28,16.90
2013,08,21,09,29,16.90
2013,08,21,09,30,16.90
2013,08,21,09,31,17.00
2013,08,21,09,32,17.00
2013,08,21,09,33,17.00
2013,08,21,09,34,17.00
2013,08,21,09,35,17.10
2013,08,21,09,36,17.10
2013,08,21,09,37,17.20
2013,08,21,09,38,17.10
2013,08,21,09,39,17.20
2013,08,21,09,40,17.20
2013,08,21,09,41,17.20
2013,08,21,09,42,17.20
2013,08,21,09,43,17.20
2013,08,21,09,44,17.20
2013,08,21,09,45,17.20
2013,08,21,09,46,17.30
2013,08,21,09,47,17.30
2013,08,21,09,48,17.40
2013,08,21,09,49,17.50
2013,08,21,09,50,17.60
2013,08,21,09,51,17.60
2013,08,21,09,52,17.70
2013,08,21,09,53,17.80
2013,08,21,09,54,17.90
2013,08,21,09,55,18.00
2013,08,21,09,56,18.10
2013,08,21,09,57,18.20
2013,08,21,09,58,18.20
2013,08,21,09,59,18.20
2013,08,21,10,00,18.20
2013,08,21,10,01,18.20
2013,08,21,10,02,18.20
2013,08,21,10,03,18.30
2013,08,21,10,04,18.30
2013,08,21,10,05,18.30
2013,08,21,10,06,18.30
2013,08,21,10,07,18.30
2013,08,21,10,08,18.30
2013,08,21,10,09,18.30
2013,08,21,10,10,18.30
2013,08,21,10,11,18.30
2013,08,21,10,12,18.30
2013,08,21,10,13,18.30
2013,08,21,10,14,18.30
2013,08,21,10,15,18.30
2013,08,21,10,16,18.20
2013,08,21,10,17,18.20
2013,08,21,10,18,18.30
2013,08,21,10,19,18.30
2013,08,21,10,20,18.30
2013,08,21,10,21,18.30
2013,08,21,10,22,18.30
2013,08,21,10,23,18.30
2013,08,21,10,24,18.30
2013,08,21,10,25,18.30
2013,08,21,10,26,18.40
2013,08,21,10,27,18.40
2013,08,21,10,28,18.40
2013,08,21,10,29,18.40
2013,08,21,10,30,18.30
2013,08,21,10,31,18.30
2013,08,21,10,32,18.30
2013,08,21,10,33,18.40
2013,08,21,10,34,18.40
2013,08,21,10,35,18.50
2013,08,21,10,36,18.60
2013,08,21,10,37,18.70
2013,08,21,10,38,18.80
2013,08,21,10,39,18.90
2013,08,21,10,40,18.90
2013,08,21,10,41,19.00
2013,08,21,10,42,19.10
2013,08,21,10,43,19.20
2013,08,21,10,44,19.30
2013,08,21,10,45,19.40
2013,08,21,10,46,19.50
2013,08,21,10,47,19.50
2013,08,21,10,48,19.60
2013,08,21,10,49,19.70
2013,08,21,10,50,19.80
2013,08,21,10,51,19.90
2013,08,21,10,52,20.00
2013,08,21,10,53,20.20
2013,08,21,10,54,20.30
2013,08,21,10,55,20.50
2013,08,21,10,56,20.60
2013,08,21,10,57,20.70
2013,08,21,10,58,20.70
2013,08,21,10,59,20.70
2013,08,21,11,00,20.80
2013,08,21,11,01,20.80
2013,08,21,11,02,20.90
2013,08,21,11,03,21.00
2013,08,21,11,04,21.20
2013,08,21,11,05,21.30
2013,08,21,11,06,21.50
2013,08,21,11,07,21.60
2013,08,21,11,08,21.70
2013,08,21,11,09,21.80
2013,08,21,11,10,21.90
2013,08,21,11,11,22.00
2013,08,21,11,12,22.10
2013,08,21,11,13,22.20
2013,08,21,11,14,22.30
2013,08,21,11,15,22.40
2013,08,21,11,16,22.50
2013,08,21,11,17,22.50
2013,08,21,11,18,22.60
2013,08,21,11,19,22.60
2013,08,21,11,20,22.50
2013,08,21,11,21,22.30
2013,08,21,11,22,22.20
2013,08,21,11,23,22.00
2013,08,21,11,24,21.90
2013,08,21,11,25,21.90
2013,08,21,11,26,21.90
2013,08,21,11,27,21.90
2013,08,21,11,28,22.00
2013,08,21,11,29,22.00
2013,08,21,11,30,22.00
2013,08,21,11,31,22.10
2013,08,21,11,32,22.10
2013,08,21,11,33,22.10
2013,08,21,11,34,22.10
2013,08,21,11,35,22.20
2013,08,21,11,36,22.20
2013,08,21,11,37,22.20
2013,08,21,11,38,22.30
2013,08,21,11,39,22.40
2013,08,21,11,40,22.40
2013,08,21,11,41,22.40
2013,08,21,11,42,22.30
2013,08,21,11,43,22.20
2013,08,21,11,44,22.00
2013,08,21,11,45,21.90
2013,08,21,11,46,21.80
2013,08,21,11,47,21.90
2013,08,21,11,48,22.10
2013,08,21,11,49,22.30
2013,08,21,11,50,22.40
2013,08,21,11,51,22.50
2013,08,21,11,52,22.60
2013,08,21,11,53,22.60
2013,08,21,11,54,22.60
2013,08,21,11,55,22.70
2013,08,21,11,56,22.70
2013,08,21,11,57,22.70
2013,08,21,11,58,22.70
2013,08,21,11,59,22.80
2013,08,21,12,00,22.80
2013,08,21,12,01,22.80
2013,08,21,12,02,22.60
2013,08,21,12,03,22.50
2013,08,21,12,04,22.40
2013,08,21,12,05,22.30
2013,08,21,12,06,22.30
2013,08,21,12,07,22.20
2013,08,21,12,08,22.20
2013,08,21,12,09,22.20
2013,08,21,12,10,22.20
2013,08,21,12,11,22.20
2013,08,21,12,12,22.20
2013,08,21,12,13,22.20
2013,08,21,12,14,22.20
2013,08,21,12,15,22.30
2013,08,21,12,16,22.30
2013,08,21,12,17,22.40
2013,08,21,12,18,22.50
2013,08,21,12,19,22.60
2013,08,21,12,20,22.60
2013,08,21,12,21,22.60
2013,08,21,12,22,22.60
2013,08,21,12,23,22.70
2013,08,21,12,24,22.70
2013,08,21,12,25,22.70
2013,08,21,12,26,22.80
2013,08,21,12,27,22.80
2013,08,21,12,28,22.90
2013,08,21,12,29,23.00
2013,08,21,12,30,23.10
2013,08,21,12,31,23.10
2013,08,21,12,32,23.10
2013,08,21,12,33,23.00
2013,08,21,12,34,23.00
2013,08,21,12,35,22.90
2013,08,21,12,36,22.90
2013,08,21,12,37,22.90
2013,08,21,12,38,22.80
2013,08,21,12,39,22.70
2013,08,21,12,40,22.70
2013,08,21,12,41,22.60
2013,08,21,12,42,22.50
2013,08,21,12,43,22.30
2013,08,21,12,44,22.30
2013,08,21,12,45,22.30
2013,08,21,12,46,22.30
2013,08,21,12,47,22.30
2013,08,21,12,48,22.30
2013,08,21,12,49,22.30
2013,08,21,12,50,22.40
2013,08,21,12,51,22.50
2013,08,21,12,52,22.60
2013,08,21,12,53,22.80
2013,08,21,12,54,22.90
2013,08,21,12,55,23.00
2013,08,21,12,56,23.10
2013,08,21,12,57,23.20
2013,08,21,12,58,23.30
2013,08,21,12,59,23.50
2013,08,21,13,00,23.60
2013,08,21,13,01,23.70
2013,08,21,13,02,23.80
2013,08,21,13,03,23.90
2013,08,21,13,04,23.90
2013,08,21,13,05,24.00
2013,08,21,13,06,24.10
2013,08,21,13,07,24.30
2013,08,21,13,08,24.30
2013,08,21,13,09,24.30
2013,08,21,13,10,24.20
2013,08,21,13,11,24.10
2013,08,21,13,12,24.00
2013,08,21,13,13,23.90
2013,08,21,13,14,23.90
2013,08,21,13,15,23.90
2013,08,21,13,16,23.90
2013,08,21,13,17,24.00
2013,08,21,13,18,24.00
2013,08,21,13,19,24.10
2013,08,21,13,20,24.10
2013,08,21,13,21,24.10
2013,08,21,13,22,24.10
2013,08,21,13,23,24.20
2013,08,21,13,24,24.30
2013,08,21,13,25,24.40
2013,08,21,13,26,24.40
2013,08,21,13,27,24.40
2013,08,21,13,28,24.30
2013,08,21,13,29,24.30
2013,08,21,13,30,24.30
2013,08,21,13,31,24.40
2013,08,21,13,32,24.40
2013,08,21,13,33,24.40
2013,08,21,13,34,24.50
2013,08,21,13,35,24.60
2013,08,21,13,36,24.60
2013,08,21,13,37,24.60
2013,08,21,13,38,24.60
2013,08,21,13,39,24.50
2013,08,21,13,40,24.50
2013,08,21,13,41,24.50
2013,08,21,13,42,24.50
2013,08,21,13,43,24.60
2013,08,21,13,44,24.70
2013,08,21,13,45,24.60
2013,08,21,13,46,24.60
2013,08,21,13,47,24.60
2013,08,21,13,48,24.60
2013,08,21,13,49,24.70
2013,08,21,13,50,24.70
2013,08,21,13,51,24.70
2013,08,21,13,52,24.70
2013,08,21,13,53,24.80
2013,08,21,13,54,24.90
2013,08,21,13,55,25.00
2013,08,21,13,56,25.10
2013,08,21,13,57,25.00
2013,08,21,13,58,25.00
2013,08,21,13,59,24.90
2013,08,21,14,00,24.90
2013,08,21,14,01,24.80
2013,08,21,14,02,24.80
2013,08,21,14,03,24.80
2013,08,21,14,04,24.80
2013,08,21,14,05,24.80
2013,08,21,14,06,24.80
2013,08,21,14,07,24.90
2013,08,21,14,08,24.90
2013,08,21,14,09,24.80
2013,08,21,14,10,24.80
2013,08,21,14,11,24.80
2013,08,21,14,12,24.80
2013,08,21,14,13,25.00
2013,08,21,14,14,25.10
2013,08,21,14,15,25.20
2013,08,21,14,16,25.30
2013,08,21,14,17,25.30
2013,08,21,14,18,25.30
2013,08,21,14,19,25.30
2013,08,21,14,20,25.30
2013,08,21,14,21,25.20
2013,08,21,14,22,25.20
2013,08,21,14,23,25.20
2013,08,21,14,24,25.20
2013,08,21,14,25,25.20
2013,08,21,14,26,25.20
2013,08,21,14,27,25.30
2013,08,21,14,28,25.30
2013,08,21,14,29,25.40
2013,08,21,14,30,25.50
2013,08,21,14,31,25.60
2013,08,21,14,32,25.60
2013,08,21,14,33,25.40
2013,08,21,14,34,25.30
2013,08,21,14,35,25.20
2013,08,21,14,36,25.20
2013,08,21,14,37,25.10
2013,08,21,14,38,25.10
2013,08,21,14,39,25.10
2013,08,21,14,40,25.20
2013,08,21,14,41,25.20
2013,08,21,14,42,25.20
2013,08,21,14,43,25.20
2013,08,21,14,44,25.20
2013,08,21,14,45,25.20
2013,08,21,14,46,25.20
2013,08,21,14,47,25.10
2013,08,21,14,48,25.10
2013,08,21,14,49,25.00
2013,08,21,14,50,25.00
2013,08,21,14,51,24.90
2013,08,21,14,52,25.00
2013,08,21,14,53,25.00
2013,08,21,14,54,25.00
2013,08,21,14,55,25.00
2013,08,21,14,56,25.00
2013,08,21,14,57,25.00
2013,08,21,14,58,25.00
2013,08,21,14,59,25.00
2013,08,21,15,00,25.00
2013,08,21,15,01,25.10
2013,08,21,15,02,25.20
2013,08,21,15,03,25.20
2013,08,21,15,04,25.30
2013,08,21,15,05,25.30
2013,08,21,15,06,25.30
2013,08,21,15,07,25.30
2013,08,21,15,08,25.30
2013,08,21,15,09,25.30
2013,08,21,15,10,25.40
2013,08,21,15,11,25.30
2013,08,21,15,12,25.30
2013,08,21,15,13,25.20
2013,08,21,15,14,25.20
2013,08,21,15,15,25.20
2013,08,21,15,16,25.20
2013,08,21,15,17,25.20
2013,08,21,15,18,25.20
2013,08,21,15,19,25.30
2013,08,21,15,20,25.40
2013,08,21,15,21,25.40
2013,08,21,15,22,25.50
2013,08,21,15,23,25.50
2013,08,21,15,24,25.60
2013,08,21,15,25,25.60
2013,08,21,15,26,25.60
2013,08,21,15,27,25.60
2013,08,21,15,28,25.60
2013,08,21,15,29,25.50
2013,08,21,15,30,25.50
2013,08,21,15,31,25.50
2013,08,21,15,32,25.50
2013,08,21,15,33,25.50
2013,08,21,15,34,25.60
2013,08,21,15,35,25.60
2013,08,21,15,36,25.70
2013,08,21,15,37,25.80
2013,08,21,15,38,25.90
2013,08,21,15,39,26.10
2013,08,21,15,40,26.20
2013,08,21,15,41,26.30
2013,08,21,15,42,26.30
2013,08,21,15,43,26.20
2013,08,21,15,44,26.20
2013,08,21,15,45,26.20
2013,08,21,15,46,26.20
2013,08,21,15,47,26.10
2013,08,21,15,48,26.10
2013,08,21,15,49,26.00
2013,08,21,15,50,25.90
2013,08,21,15,51,25.80
2013,08,21,15,52,25.80
2013,08,21,15,53,25.90
2013,08,21,15,54,26.00
2013,08,21,15,55,26.10
2013,08,21,15,56,26.10
2013,08,21,15,57,26.10
2013,08,21,15,58,26.10
2013,08,21,15,59,26.10
2013,08,21,16,00,26.10
2013,08,21,16,01,26.10
2013,08,21,16,02,26.10
2013,08,21,16,03,26.20
2013,08,21,16,04,26.20
2013,08,21,16,05,26.30
2013,08,21,16,06,26.30
2013,08,21,16,07,26.30
2013,08,21,16,08,26.30
2013,08,21,16,09,26.30
2013,08,21,16,10,26.30
2013,08,21,16,11,26.30
2013,08,21,16,12,26.40
2013,08,21,16,13,26.40
2013,08,21,16,14,26.50
2013,08,21,16,15,26.60
2013,08,21,16,16,26.60
2013,08,21,16,17,26.50
2013,08,21,16,18,26.50
2013,08,21,16,19,26.50
2013,08,21,16,20,26.40
2013,08,21,16,21,26.30
2013,08,21,16,22,26.30
2013,08,21,16,23,26.20
2013,08,21,16,24,26.10
2013,08,21,16,25,26.00
2013,08,21,16,26,26.00
2013,08,21,16,27,26.00
2013,08,21,16,28,26.10
2013,08,21,16,29,26.10
2013,08,21,16,30,26.10
2013,08,21,16,31,26.20
2013,08,21,16,32,26.10
2013,08,21,16,33,26.10
2013,08,21,16,34,26.20
2013,08,21,16,35,26.20
2013,08,21,16,36,26.30
2013,08,21,16,37,26.40
2013,08,21,16,38,26.50
2013,08,21,16,39,26.50
2013,08,21,16,40,26.40
2013,08,21,16,41,26.40
2013,08,21,16,42,26.50
2013,08,21,16,43,26.60
2013,08,21,16,44,26.60
2013,08,21,16,45,26.60
2013,08,21,16,46,26.70
2013,08,21,16,47,26.70
2013,08,21,16,48,26.80
2013,08,21,16,49,26.80
2013,08,21,16,50,26.80
2013,08,21,16,51,26.80
2013,08,21,16,52,26.80
2013,08,21,16,53,26.70
2013,08,21,16,54,26.70
2013,08,21,16,55,26.70
2013,08,21,16,56,26.80
2013,08,21,16,57,26.80
2013,08,21,16,58,26.80
2013,08,21,16,59,26.80
2013,08,21,17,00,26.80
2013,08,21,17,01,26.80
2013,08,21,17,02,26.80
2013,08,21,17,03,26.80
2013,08,21,17,04,26.80
2013,08,21,17,05,26.80
2013,08,21,17,06,26.70
2013,08,21,17,07,26.70
2013,08,21,17,08,26.70
2013,08,21,17,09,26.70
2013,08,21,17,10,26.70
2013,08,21,17,11,26.70
2013,08,21,17,12,26.60
2013,08,21,17,13,26.50
2013,08,21,17,14,26.50
2013,08,21,17,15,26.60
2013,08,21,17,16,26.60
2013,08,21,17,17,26.60
2013,08,21,17,18,26.60
2013,08,21,17,19,26.60